Tidewater Fall Classic 2017 vs Tidewater Fall Classic 2014

Aggregate Data Points
Difference This Meet That Meet
Overall Athletes +47 497 450
Overall Average -1:06.86 23:06.53 24:13.38
1st-10th Place -21.96 16:35.72 16:57.67
1st-25th Place -21.90 17:06.84 17:28.74
1st-50th Place -21.82 17:38.71 18:00.53
1st-100th Place -29.44 18:22.94 18:52.37
Common Athletes -- -- 26
Ran Faster 18 22 4
Ran Season Best -3 16 19
Average Time -2:00.46 21:05.15 23:05.61
Median Time -1:23.61 21:16.38 22:39.99
Middle 80% Times -1:58.60 20:53.59 22:52.19
Top 10% Times -1:48.01 16:39.41 18:27.43
Top 25% Times -1:38.29 17:20.39 18:58.68
Top 50% Times -1:39.99 18:29.87 20:09.86
Bottom 50% Times -2:20.92 23:40.43 26:01.36
Bottom 25% Times -2:46.86 25:26.94 28:13.80
Bottom 10% Times -3:27.59 27:59.92 31:27.52
Average Difference -2:00.46 -- --
Median Difference -3:04.98 -- --
Middle 80% Difference -1:44.50 -- --
Top 10% Difference -1:42.56 -- --
Top 50% Difference -1:33.17 -- --
Top 25% Difference -1:34.35 -- --
Top 50% Difference -1:33.17 -- --
Bottom 50% Difference -2:27.75 -- --
Bottom 25% Difference -4:01.34 -- --
Bottom 10% Difference -3:32.73 -- --

Performances of Common Athletes
Athlete Team Difference This Meet That Meet
Albert Norman Sussex Central High School -2:37.98 16:12.15 18:50.13
Chase Osborne Northwest High School -1:17.30 16:41.93 17:59.23
Gavin Williams Dover High School -2:14.83 17:04.16 19:18.99
Ben Campagnone Sussex Central High School -2:17.07 17:04.80 19:21.87
Kolbey Woodard Northwest High School -1:12.41 17:20.51 18:32.92
Jack Reimer Stephen Decatur High School -1:08.91 18:21.13 19:30.04
Davion Dockins North Dorchester High School -3:30.13 18:38.03 22:08.16
Aaron Rash Polytech High School -3:22.04 19:02.80 22:24.84
Robby Parker Broadwater Academy -11.92 19:05.64 19:17.56
Andrew Brewer Queen Anne's County High School -1:29.87 19:07.87 20:37.74
Joe Bates North Dorchester High School +15.05 20:21.03 20:05.98
Isaiah Brinsfield North Dorchester High School -3:04.98 20:19.98 23:24.96
Shawn Temple Parkside High School -3:21.94 21:08.26 24:30.20
Julia Brock Northwest High School -1:23.61 21:16.38 22:39.99
Taylor Peck Queen Anne's County High School -4:43.39 21:17.99 26:01.38
Tyler Harrell James M. Bennett High School +2:05.47 23:28.16 21:22.69
Seth Layton North Caroline High School -5:39.07 21:26.29 27:05.36
Alicia Canas Northwest High School -1:45.05 21:41.93 23:26.98
Bryce Bond Mardela Middle & High School -3:46.81 21:50.31 25:37.12
Alexis Singh Sussex Technical High School -1:27.45 22:04.14 23:31.59
Emily Perry Polytech High School +19.80 22:57.86 22:38.06
Claire Dowd Easton High School -14.10 23:28.64 23:42.74
Maya Knepp Stephen Decatur High School +34.80 24:29.56 23:54.76
Hailee Peters North Dorchester High School -6:36.21 24:14.14 30:50.35
Natalie Anderson Cambridge-South Dorchester High School -8.40 29:26.68 29:35.08
Brooklyn Cleveland North Caroline High School -3:53.59 30:03.53 33:57.12